#timestamp,LO_Frequency,Hit,StdDev 
1508000415.4,286047020.4,N
1508000435.3,286047021.5,N
1508000455.1,286047023.4,N
1508000475.8,286047028.5,Y
1508000495.7,286047019.7,P
1508000515.5,286047022.8,P
1508000535.3,286047026.3,P
1508000555.2,286047024.0,Y
1508000575.0,286047003.9,P
1508000575.9,286047003.9,N
1508000595.7,286047008.6,N
1508000615.6,286047009.9,N
1508000635.4,286047008.0,N
1508000655.2,286047011.0,N
1508000675.1,286047009.4,N
1508000676.0,286047009.4,N
1508000695.8,286047012.1,N
1508000715.6,286047011.4,N
1508000735.5,286047009.4,N
1508000755.3,286047011.6,N
1508000775.1,286047009.6,N
1508000795.9,286047012.7,Y
1508000815.7,286047006.9,P
1508000835.5,286047003.4,N
1508000855.4,286047004.3,N
1508000875.2,286047003.9,N
1508000895.0,286047003.7,N
1508000895.9,286047003.7,N
1508000915.8,286047003.6,N
1508000935.6,286047005.3,N
1508000955.4,286047004.2,N
1508000975.2,286047003.3,N
1508000995.1,286047002.5,N
1508000996.0,286047002.5,N
1508001015.8,286046998.6,N
1508001035.6,286047002.5,N
1508001055.5,286047005.1,N
1508001075.3,286047005.1,N
1508001095.1,286047007.5,Y
1508001115.9,286046999.9,P
1508001135.7,286046998.5,N
1508001155.5,286047001.0,N
1508001175.4,286047002.3,N
1508001195.2,286047004.4,N
1508001215.0,286047001.3,N
1508001215.9,286047001.3,N
1508001235.8,286047001.8,N
1508001255.6,286047003.6,N
1508001275.4,286047003.1,N
1508001295.3,286047004.7,N
1508001315.1,286047006.7,Y
1508001316.0,286047006.7,P
1508001335.8,286047006.8,N
1508001355.7,286047003.2,N
1508001375.5,286047005.3,N
1508001395.3,286047005.0,N
1508001415.2,286047005.8,Y
1508001435.9,286047000.9,P
1508001455.7,286047000.1,N
1508001475.6,286047002.3,N
1508001495.4,286047004.4,N
1508001515.2,286047000.3,N
1508001535.1,286046995.6,N
1508001536.0,286046995.6,N
1508001555.8,286046991.0,N
1508001575.6,286046987.2,N
1508001595.4,286046985.6,N
1508001615.3,286046982.3,N
1508001635.1,286046979.0,N
1508001655.8,286046979.6,N
1508001675.7,286046978.6,N
1508001695.5,286046974.6,N
1508001715.3,286046972.8,N
1508001735.2,286046971.7,N
1508001755.9,286046972.4,N
1508001775.7,286046971.7,N
1508001795.6,286046972.4,N
1508001815.4,286046970.7,N
1508001835.2,286046966.5,N
1508001855.0,286046966.3,N
1508001856.0,286046966.3,N
1508001875.8,286046964.9,N
1508001895.6,286046967.2,N
1508001915.4,286046965.9,N
1508001935.3,286046965.5,N
1508001955.1,286046961.6,N
1508001975.8,286046959.8,N
1508001995.7,286046959.9,N
1508002015.5,286046962.7,N
1508002035.3,286046962.8,N
1508002055.2,286046958.6,Y
1508002075.0,286046986.3,P
1508002075.9,286046986.3,N
1508002095.7,286046984.4,N
1508002115.6,286046983.0,Y
1508002135.4,286047000.0,P
1508002155.2,286047002.8,N
1508002175.1,286047001.9,N
1508002176.0,286047001.9,N
1508002195.8,286047000.1,N
1508002215.6,286047002.2,N
1508002235.5,286047002.1,N
1508002255.3,286047002.5,N
1508002275.1,286046997.9,N
1508002295.9,286046999.3,N
1508002315.7,286047004.8,N
1508002335.5,286047011.6,N
1508002355.4,286047016.3,N
1508002375.2,286047019.8,N
1508002395.0,286047018.5,N
1508002395.9,286047018.5,N
1508002415.8,286047024.8,N
1508002435.6,286047025.4,N
1508002455.4,286047029.8,N
1508002475.2,286047030.9,N
1508002495.1,286047030.5,N
1508002496.0,286047030.5,N
1508002515.8,286047033.6,N
1508002535.6,286047034.1,N
1508002555.5,286047036.0,N
1508002575.3,286047037.9,N
1508002595.1,286047040.1,N
1508002615.9,286047042.4,N
1508002635.7,286047040.8,N
1508002655.5,286047042.6,N
1508002675.4,286047043.3,N
1508002695.2,286047041.6,N
1508002715.0,286047042.0,N
1508002715.9,286047042.0,N
1508002735.8,286047042.7,N
1508002755.6,286047042.3,N
1508002775.4,286047040.5,N
1508002795.3,286047038.3,N
1508002815.1,286047039.8,N
1508002816.0,286047039.8,Y
1508002835.8,286047009.5,P
1508002855.7,286047012.4,N
1508002875.5,286047013.5,N
1508002895.3,286047012.8,N
1508002915.2,286047014.5,N
1508002935.9,286047011.4,N
1508002955.7,286047010.3,N
1508002975.5,286047010.2,N
1508002995.4,286047006.7,N
1508003015.2,286047008.9,N
1508003035.0,286047009.6,N
1508003035.9,286047009.6,N
1508003055.8,286047009.5,N
1508003075.6,286047011.5,N
1508003095.4,286047012.6,N
1508003115.3,286047013.0,N
1508003135.1,286047013.3,N
1508003155.8,286047011.4,N
1508003175.7,286047012.9,N
1508003195.5,286047015.3,Y
1508003215.3,286047001.4,P
1508003235.2,286047001.4,N
1508003255.9,286047000.5,N
1508003275.7,286046996.9,N
1508003295.6,286046998.2,N
1508003315.4,286047001.1,N
1508003335.2,286046999.7,N
1508003355.1,286047002.7,N
1508003356.0,286047002.7,N
1508003375.8,286047000.9,N
1508003395.6,286047000.2,N
1508003415.5,286047002.3,N
1508003435.3,286047001.8,N
1508003455.1,286047004.0,N
1508003475.8,286047005.5,N
1508003495.7,286047002.0,N
1508003515.5,286046997.2,N
1508003535.3,286046991.8,N
1508003555.2,286046989.9,N
1508003575.9,286046984.4,Y
1508003595.7,286046983.1,P
1508003615.6,286046979.4,N
1508003635.4,286046977.6,N
1508003655.2,286046977.2,N
1508003675.1,286046977.1,N
1508003676.0,286046977.1,N
1508003695.8,286046975.3,Y
1508003715.6,286046990.7,P
1508003735.5,286046991.3,N
1508003755.3,286046992.6,N
1508003775.1,286046992.6,N
1508003795.9,286046991.4,N
1508003815.7,286046990.7,N
1508003835.5,286046994.4,N
1508003855.4,286046994.0,N
1508003875.2,286046993.9,N
1508003895.0,286046994.6,N
1508003895.9,286046994.6,N
1508003915.8,286046992.4,N
1508003935.6,286046994.4,N
1508003955.4,286046991.3,N
1508003975.3,286046987.3,Y
1508003995.1,286046998.0,P
1508003996.0,286046998.0,N
